Location: Unspecified
(10.5000°N, 0.0000°E)
Time: 13:11:31
(UTC+00:00)

Envisat - Pass Details

Date: 17 June 2019
Orbit: 764 x 766 km, 98.1° (Epoch: 25 August)

Event Time Altitude Azimuth Distance (km) Brightness Sun altitude
Rises 19:39:20 0° 198° (SSW) 3,220 6.1 -17.7°
Reaches altitude 10° 19:42:16 10° 216° (SW) 2,294 5.5 -18.3°
Maximum altitude 19:45:45 19° 260° (W) 1,763 5.5 -19.0°
Drops below altitude 10° 19:49:15 10° 304° (NW) 2,295 6.7 -19.8°
Sets 19:52:13 0° 322° (NW) 3,221 7.4 -20.4°
